Location: Jefferson
(30.9666°N, 81.7901°W)
Time: 23:07:13
(UTC+00:00)

Hubble Space Telescope - Pass Details

Date: 23 September 2024
Orbit: 504 x 508 km, 28.5° (Epoch: 06 October)

Event Time Altitude Azimuth Distance (km) Brightness Sun altitude
Rises 10:38:40 0° 213° (SSW) 2,574 3.9 -8.9°
Reaches altitude 10° 10:41:49 10° 186° (S) 1,693 3.2 -8.2°
Maximum altitude 10:43:47 14° 155° (SSE) 1,485 3.3 -7.8°
Drops below altitude 10° 10:45:47 10° 125° (SE) 1,696 4.2 -7.4°
Sets 10:48:56 0° 98° (E) 2,583 6.3 -6.7°
